Location: Unspecified
(51.0950°N, 12.9690°E)
Time: 16:00:46
(UTC+00:00)

BEESAT - Pass Details

Date: 24 April 2024
Orbit: 692 x 702 km, 98.5° (Epoch: 27 May)

Event Time Altitude Azimuth Distance (km) Brightness Sun altitude
Rises 21:24:07 0° 15° (NNE) 3,086 ? -21.9°
Reaches altitude 10° 21:26:23 10° 16° (NNE) 2,163 ? -22.1°
Maximum altitude 21:31:07 87° 103° (ESE) 702 ? -22.4°
Enters shadow 21:32:05 58° 190° (S) 814 ? -22.5°
